Location: Hall+in+Tirol
(47.2830°N, 11.5170°E)
Time: 08:59:29
(UTC+02:00)

Amateur Radio Satellites - All Passes

Search period start: 22 July 2017 08:29
Search period end: 23 July 2017 08:29
Location: Hall+in+Tirol, 47.2830°N, 11.5170°E

Satellite Date Start Highest point End Downlink Frequencies (MHz)
Time Altitude Azimuth
CUTE-I 22 Jul 08:39:40 08:44:37 39° 294° (WNW) 08:49:33 437.470
XW-2C 22 Jul 08:41:15 08:43:47 17° 296° (WNW) 08:46:18 145.795 - 145.815
Oscar 11 22 Jul 08:42:54 08:43:53 11° 87° (E) 08:44:51 .
AO-7 22 Jul 08:43:02 08:45:06 11° 331° (NNW) 08:47:10 .
TIGRISAT 22 Jul 08:44:36 08:46:28 12° 57° (ENE) 08:48:20 435.000
AO-73 22 Jul 08:51:01 08:53:41 16° 90° (E) 08:56:20 145.935
PCSat 22 Jul 08:52:42 08:56:43 20° 326° (NW) 09:00:44 145.827
AAUSAT CUBESAT 2 22 Jul 08:53:12 08:57:00 33° 96° (E) 09:00:48 437.432
LilacSat-2 22 Jul 09:01:33 09:02:39 11° 300° (WNW) 09:03:44 437.200
FO-29 22 Jul 09:02:16 09:09:27 47° 64° (ENE) 09:16:51 435.910
PRISM 22 Jul 09:03:28 09:05:47 15° 60° (ENE) 09:08:07 437.425
NUDT-PHONESAT 22 Jul 09:04:34 09:06:16 13° 298° (WNW) 09:07:58 437.300
KAITUO 1B 22 Jul 09:14:20 09:15:04 10° 300° (WNW) 09:15:49 145.475/437.950
CUTE 1.7 + AOD 2 22 Jul 09:14:33 09:18:36 45° 289° (WNW) 09:22:39 437.475
UWE-3 22 Jul 09:21:34 09:25:48 67° 101° (E) 09:29:56 435.000/436.395/437.385
STRAND 1 22 Jul 09:29:00 09:31:09 12° 273° (W) 09:33:16 437.568
UNISAT 6 22 Jul 09:32:59 09:37:11 34° 68° (ENE) 09:41:21 437.425
SEEDS 22 Jul 09:33:54 09:37:55 44° 289° (WNW) 09:41:54 437.485
YUBILEINY 22 Jul 09:42:31 09:45:13 12° 292° (WNW) 09:47:54 435.215
ZACube-1 22 Jul 09:43:37 09:47:47 65° 101° (E) 09:51:53 437.345
XW-2A 22 Jul 09:45:09 09:47:54 24° 292° (WNW) 09:50:38 145.665 - 145.685
HO-68 22 Jul 09:47:53 09:54:44 50° 296° (WNW) 10:01:32 435.675
CUBEBUG 2 22 Jul 09:52:27 09:56:26 36° 292° (WNW) 10:00:18 437.445
SO-50 22 Jul 09:53:13 09:56:51 23° 325° (NW) 10:00:30 436.795
EO-88 22 Jul 10:16:00 10:18:15 15° 91° (E) 10:20:29 145.990 - 145.960
Oscar 11 22 Jul 10:16:17 10:20:37 84° 284° (WNW) 10:24:55 .
TIGRISAT 22 Jul 10:17:46 10:22:26 84° 75° (ENE) 10:27:04 435.000
M-CUBED/EXP-1 PRIME 22 Jul 10:20:59 10:24:34 75° 69° (ENE) 10:28:29 437.505
AO-73 22 Jul 10:26:11 10:30:14 50° 289° (WNW) 10:34:13 145.935
DELFI C3 22 Jul 10:28:39 10:32:21 35° 97° (E) 10:36:03 145.870
AAUSAT CUBESAT 2 22 Jul 10:28:53 10:32:20 25° 294° (WNW) 10:35:46 437.432
AIST 2D 22 Jul 10:32:58 10:34:57 15° 64° (ENE) 10:36:57 435.315
PRISM 22 Jul 10:36:31 10:40:35 63° 258° (WSW) 10:44:41 437.425
POLYITAN 1 22 Jul 10:42:14 10:44:04 13° 58° (ENE) 10:45:55 437.675
DUCHIFAT 1 22 Jul 10:45:55 10:47:06 11° 57° (ENE) 10:48:16 145.980
FO-29 22 Jul 10:47:11 10:54:23 47° 264° (W) 11:01:57 435.910
QB50P2 22 Jul 10:53:54 10:56:43 17° 62° (ENE) 10:59:33 145.880/145.840
UWE-3 22 Jul 10:59:25 11:01:44 14° 300° (WNW) 11:04:01 435.000/436.395/437.385
EO-79 22 Jul 11:06:47 11:09:59 21° 63° (ENE) 11:13:12 145.935-145.965
NANOSAT C BR1 22 Jul 11:09:15 11:12:23 20° 63° (ENE) 11:15:31 145.865
UNISAT 6 22 Jul 11:09:49 11:13:55 30° 265° (W) 11:17:58 437.425
ZACube-1 22 Jul 11:21:15 11:23:34 15° 300° (WNW) 11:25:52 437.345
HO-68 22 Jul 11:37:58 11:40:50 13° 318° (NW) 11:43:42 435.675
EO-88 22 Jul 11:48:40 11:52:07 41° 289° (WNW) 11:55:33 145.990 - 145.960
Oscar 11 22 Jul 11:54:52 11:56:02 11° 303° (WNW) 11:57:11 .
TIGRISAT 22 Jul 11:57:50 11:59:42 12° 273° (W) 12:01:33 435.000
Oscar 19 22 Jul 12:01:35 12:03:41 13° 53° (NE) 12:05:48 437.125/150
DELFI C3 22 Jul 12:03:48 12:06:57 23° 295° (WNW) 12:10:05 145.870
LO-87 22 Jul 12:04:24 12:07:51 39° 98° (E) 12:11:14 145.935 - 145.965
AIST 2D 22 Jul 12:04:29 12:07:49 43° 261° (W) 12:11:11 435.315
POLYITAN 1 22 Jul 12:14:57 12:19:14 84° 257° (WSW) 12:23:32 437.675
DUCHIFAT 1 22 Jul 12:17:48 12:22:04 85° 76° (ENE) 12:26:20 145.980
AO-7 22 Jul 12:21:46 12:22:28 10° 27° (NNE) 12:23:11 .
ESTCUBE 1 22 Jul 12:25:53 12:30:12 43° 98° (E) 12:34:30 437.505/2401.250
PCSat 22 Jul 12:26:34 12:28:31 12° 19° (NNE) 12:30:29 145.827
QB50P2 22 Jul 12:27:54 12:32:06 56° 260° (W) 12:36:20 145.880/145.840
EO-79 22 Jul 12:41:23 12:45:29 44° 261° (W) 12:49:35 145.935-145.965
NO-84 22 Jul 12:41:44 12:44:26 26° 134° (SE) 12:47:19 435.350 FM
NANOSAT C BR1 22 Jul 12:43:42 12:47:47 46° 261° (W) 12:51:55 145.865
BUGSAT 1 22 Jul 13:00:30 13:04:45 75° 74° (ENE) 13:09:00 437.445
SPROUT 22 Jul 13:08:12 13:12:02 31° 96° (E) 13:15:51 437.525
SO-50 22 Jul 13:20:55 13:21:37 10° 14° (NNE) 13:22:19 436.795
BEESAT 3 22 Jul 13:22:24 13:24:56 16° 112° (ESE) 13:27:29 437.485
VELOX 1 22 Jul 13:26:45 13:31:01 42° 99° (E) 13:35:14 145.980
Gurwin Techsat 1B 22 Jul 13:35:44 13:40:49 48° 68° (ENE) 13:45:56 435.225
Oscar 19 22 Jul 13:37:02 13:42:08 73° 72° (ENE) 13:47:15 437.125/150
LO-87 22 Jul 13:38:34 13:40:59 17° 296° (WNW) 13:43:23 145.935 - 145.965
50 SAT 22 Jul 13:39:08 13:41:53 22° 95° (E) 13:44:38 437.505
DX 1 22 Jul 13:43:58 13:47:19 21° 93° (E) 13:50:38 434.975-435.025
AO-85 22 Jul 13:45:14 13:48:39 28° 118° (ESE) 13:52:03 145.980
ITAMSAT 1 22 Jul 13:47:37 13:47:52 10° 50° (NE) 13:48:07 435.822/435.867
BEESAT 2 22 Jul 13:55:11 13:56:55 12° 110° (ESE) 13:58:38 435.950
DUCHIFAT 1 22 Jul 13:57:41 13:58:19 10° 273° (W) 13:58:57 145.980
ESTCUBE 1 22 Jul 14:03:10 14:06:46 24° 296° (WNW) 14:10:21 437.505/2401.250
AO-7 22 Jul 14:05:32 14:12:37 32° 52° (NE) 14:19:42 .
PCSat 22 Jul 14:08:47 14:13:41 33° 43° (NE) 14:18:34 145.827
NO-84 22 Jul 14:18:32 14:21:43 48° 335° (NNW) 14:25:12 435.350 FM
UKube-1 22 Jul 14:33:07 14:37:17 43° 99° (E) 14:41:25 .
BUGSAT 1 22 Jul 14:38:59 14:40:36 12° 272° (W) 14:42:14 437.445
SPROUT 22 Jul 14:44:12 14:47:52 28° 294° (WNW) 14:51:30 437.525
BEESAT 3 22 Jul 14:58:06 15:02:04 61° 310° (NW) 15:06:06 437.485
SO-50 22 Jul 14:59:42 15:03:36 27° 38° (NE) 15:07:31 436.795
ITUPSAT 1 22 Jul 15:02:22 15:03:01 10° 86° (E) 15:03:39 437.325
VELOX 1 22 Jul 15:03:39 15:07:14 24° 296° (WNW) 15:10:48 145.980
50 SAT 22 Jul 15:11:42 15:14:37 26° 292° (WNW) 15:17:30 437.505
Gurwin Techsat 1B 22 Jul 15:16:35 15:21:00 26° 267° (W) 15:25:27 435.225
Oscar 19 22 Jul 15:18:52 15:22:01 16° 271° (W) 15:25:10 437.125/150
DX 1 22 Jul 15:19:30 15:23:42 44° 291° (WNW) 15:27:52 434.975-435.025
ITAMSAT 1 22 Jul 15:21:08 15:26:14 56° 70° (ENE) 15:31:21 435.822/435.867
AO-85 22 Jul 15:25:19 15:28:57 34° 316° (NW) 15:32:34 145.980
BEESAT 2 22 Jul 15:30:03 15:34:04 78° 308° (NW) 15:38:08 435.950
RS-15 22 Jul 15:34:55 15:44:26 28° 101° (E) 15:54:01 29.354- 29.394
PCSat 22 Jul 15:52:04 15:57:19 51° 244° (WSW) 16:02:33 145.827
AO-7 22 Jul 15:56:22 16:04:43 75° 253° (WSW) 16:13:09 .
NO-84 22 Jul 15:56:54 15:59:50 24° 356° (N) 16:02:57 435.350 FM
UKube-1 22 Jul 16:09:42 16:13:03 22° 297° (WNW) 16:16:24 .
MOZHAYETS 4 22 Jul 16:18:44 16:23:07 44° 98° (E) 16:27:28
BEESAT 22 Jul 16:25:51 16:30:36 67° 103° (ESE) 16:35:19 436.000
ITUPSAT 1 22 Jul 16:36:48 16:41:36 82° 104° (ESE) 16:46:22 437.325
BEESAT 3 22 Jul 16:38:22 16:40:28 14° 331° (NNW) 16:42:34 437.485
SO-50 22 Jul 16:39:54 16:44:20 54° 238° (WSW) 16:48:48 436.795
CUBESAT XI-V 22 Jul 16:45:09 16:48:24 19° 91° (E) 16:51:41 437.345
CUTE-I 22 Jul 16:48:10 16:50:37 13° 53° (NE) 16:53:05 437.470
O/OREOS (USA 219) 22 Jul 16:50:31 16:55:00 85° 114° (ESE) 16:59:30 437.305
HO-68 22 Jul 16:52:07 16:52:53 10° 38° (NE) 16:53:39 435.675
ITAMSAT 1 22 Jul 17:02:00 17:06:02 22° 268° (W) 17:10:06 435.822/435.867
BEESAT 2 22 Jul 17:09:58 17:12:29 16° 329° (NNW) 17:15:02 435.950
DOVE 4 22 Jul 17:17:58 17:22:35 45° 69° (ENE) 17:27:27 437.250
KKS-1 22 Jul 17:24:04 17:27:42 24° 94° (E) 17:31:18 437.445
XW-2D 22 Jul 17:24:18 17:26:51 18° 64° (ENE) 17:29:26 145.860 - 145.880
XW-2B 22 Jul 17:33:52 17:36:45 21° 66° (ENE) 17:39:39 145.730 - 145.750
NO-84 22 Jul 17:34:44 17:38:05 32° 17° (NNE) 17:41:43 435.350 FM
RS-15 22 Jul 17:43:01 17:55:18 87° 125° (SE) 18:07:44 29.354- 29.394
XW-2C 22 Jul 17:50:28 17:53:49 32° 69° (ENE) 17:57:12 145.795 - 145.815
AO-7 22 Jul 17:54:00 17:58:55 17° 274° (W) 18:03:53 .
MOZHAYETS 4 22 Jul 17:56:25 18:00:01 23° 297° (WNW) 18:03:37
STARS 22 Jul 18:03:01 18:06:42 25° 94° (E) 18:10:21 437.465
BEESAT 22 Jul 18:04:42 18:07:53 18° 301° (WNW) 18:11:03 436.000
LilacSat-2 22 Jul 18:09:39 18:13:21 56° 73° (ENE) 18:17:04 437.200
NUDT-PHONESAT 22 Jul 18:11:08 18:14:37 40° 71° (ENE) 18:18:05 437.300
ITUPSAT 1 22 Jul 18:16:07 18:18:48 15° 303° (WNW) 18:21:28 437.325
KAITUO 1B 22 Jul 18:20:33 18:24:09 54° 73° (ENE) 18:27:46 145.475/437.950
CUBESAT XI-V 22 Jul 18:21:33 18:26:07 55° 288° (WNW) 18:30:40 437.345
CUTE-I 22 Jul 18:24:24 18:29:45 73° 72° (ENE) 18:35:08 437.470
XW-2F 22 Jul 18:30:33 18:34:17 89° 94° (E) 18:38:03 145.980 - 146.000
HO-68 22 Jul 18:32:09 18:38:42 40° 61° (ENE) 18:45:16 435.675
O/OREOS (USA 219) 22 Jul 18:32:23 18:35:04 15° 314° (NW) 18:37:43 437.305
CUTE 1.7 + AOD 2 22 Jul 18:35:13 18:38:20 21° 64° (ENE) 18:41:28 437.475
XW-2A 22 Jul 18:47:36 18:49:24 14° 64° (ENE) 18:51:12 145.665 - 145.685
UWE-3 22 Jul 18:48:16 18:49:37 11° 57° (ENE) 18:50:58 435.000/436.395/437.385
YUBILEINY 22 Jul 18:50:36 18:58:24 37° 84° (E) 19:06:12 435.215
SEEDS 22 Jul 18:53:41 18:56:46 21° 64° (ENE) 18:59:52 437.485
DOVE 4 22 Jul 18:56:26 19:00:27 26° 269° (W) 19:04:41 437.250
XW-2D 22 Jul 18:57:12 19:00:46 40° 262° (W) 19:04:20 145.860 - 145.880
KKS-1 22 Jul 19:00:11 19:04:25 40° 291° (WNW) 19:08:35 437.445
XW-2B 22 Jul 19:07:22 19:10:46 32° 263° (W) 19:14:12 145.730 - 145.750
ZACube-1 22 Jul 19:10:19 19:10:39 10° 57° (ENE) 19:11:01 437.345
NO-84 22 Jul 19:12:01 19:15:54 79° 216° (SW) 19:20:03 435.350 FM
CUBEBUG 2 22 Jul 19:16:33 19:20:41 32° 67° (ENE) 19:24:47 437.445
XW-2C 22 Jul 19:25:10 19:28:05 21° 267° (W) 19:31:00 145.795 - 145.815
STARS 22 Jul 19:39:03 19:43:08 37° 292° (WNW) 19:47:10 437.465
Oscar 11 22 Jul 19:40:15 19:42:24 14° 59° (ENE) 19:44:33 .
AAUSAT CUBESAT 2 22 Jul 19:46:07 19:49:47 33° 68° (ENE) 19:53:29 437.432
LilacSat-2 22 Jul 19:46:18 19:47:59 13° 271° (W) 19:49:40 437.200
NUDT-PHONESAT 22 Jul 19:46:19 19:48:42 16° 268° (W) 19:51:04 437.300
AO-73 22 Jul 19:49:06 19:52:26 21° 64° (ENE) 19:55:43 145.935
STRAND 1 22 Jul 19:53:52 19:58:05 25° 93° (E) 20:02:15 437.568
KAITUO 1B 22 Jul 19:56:51 19:58:30 12° 270° (W) 20:00:08 145.475/437.950
RS-15 22 Jul 19:57:47 20:09:24 44° 333° (NNW) 20:20:58 29.354- 29.394
CUTE-I 22 Jul 20:06:48 20:10:21 18° 271° (W) 20:13:55 437.470
CUTE 1.7 + AOD 2 22 Jul 20:09:54 20:13:54 43° 262° (W) 20:17:56 437.475
XW-2A 22 Jul 20:18:32 20:21:48 43° 261° (W) 20:25:04 145.665 - 145.685
HO-68 22 Jul 20:19:25 20:26:19 49° 260° (W) 20:33:15 435.675
UWE-3 22 Jul 20:20:44 20:25:21 79° 75° (ENE) 20:29:51 435.000/436.395/437.385
SEEDS 22 Jul 20:28:14 20:32:11 42° 262° (W) 20:36:10 437.485
AO-85 22 Jul 20:32:56 20:35:15 15° 30° (NNE) 20:37:38 145.980
ZACube-1 22 Jul 20:41:43 20:46:11 74° 74° (ENE) 20:50:34 437.345
YUBILEINY 22 Jul 20:46:09 20:54:49 58° 286° (WNW) 21:03:32 435.215
NO-84 22 Jul 20:50:37 20:52:58 15° 232° (SW) 20:55:23 435.350 FM
CUBEBUG 2 22 Jul 20:53:00 20:57:15 33° 264° (W) 21:01:27 437.445
EO-88 22 Jul 20:57:43 20:59:11 12° 61° (ENE) 21:00:41 145.990 - 145.960
Oscar 11 22 Jul 21:13:40 21:17:58 76° 258° (WSW) 21:22:17 .
DELFI C3 22 Jul 21:16:53 21:20:21 31° 68° (ENE) 21:23:53 145.870
AAUSAT CUBESAT 2 22 Jul 21:21:54 21:25:18 25° 266° (W) 21:28:43 437.432
AO-73 22 Jul 21:24:07 21:28:23 46° 261° (W) 21:32:36 145.935
STRAND 1 22 Jul 21:32:34 21:37:30 47° 291° (WNW) 21:42:21 437.568
BEESAT 3 22 Jul 21:34:44 21:38:20 30° 42° (NE) 21:41:54 437.485
nSIGHT-1 22 Jul 21:50:10 21:51:33 12° 134° (SE) 21:52:57 .
FO-29 22 Jul 21:54:20 22:00:37 30° 89° (E) 22:06:17 435.910
UWE-3 22 Jul 22:00:18 22:02:19 13° 272° (W) 22:04:18 435.000/436.395/437.385
BEESAT 2 22 Jul 22:07:31 22:10:59 26° 40° (NE) 22:14:25 435.950
TIGRISAT 22 Jul 22:07:50 22:09:59 13° 88° (E) 22:12:07 435.000
Tancredo 1 22 Jul 22:08:52 22:11:36 36° 145° (SE) 22:14:20 437.200
AO-85 22 Jul 22:12:14 22:16:22 67° 51° (NE) 22:20:45 145.980
RS-15 22 Jul 22:14:57 22:25:57 35° 7° (N) 22:36:38 29.354- 29.394
PRISM 22 Jul 22:15:52 22:18:07 14° 90° (E) 22:20:22 437.425
ZACube-1 22 Jul 22:20:55 22:22:57 13° 272° (W) 22:24:57 437.345
EO-88 22 Jul 22:28:47 22:32:23 62° 259° (W) 22:36:01 145.990 - 145.960
ISS 22 Jul 22:39:43 22:42:37 30° 143° (SE) 22:45:32 437.550
LO-87 22 Jul 22:43:24 22:46:29 26° 68° (ENE) 22:49:36 145.935 - 145.965
YUBILEINY 22 Jul 22:49:33 22:54:00 14° 311° (NW) 22:58:27 435.215
DELFI C3 22 Jul 22:51:55 22:55:10 24° 266° (W) 22:58:25 145.870
UNISAT 6 22 Jul 22:57:43 23:01:57 45° 99° (E) 23:06:04 437.425
BEESAT 3 22 Jul 23:12:17 23:15:58 35° 241° (WSW) 23:19:35 437.485
nSIGHT-1 22 Jul 23:24:14 23:27:27 70° 151° (SSE) 23:30:40 .
ESTCUBE 1 22 Jul 23:28:06 23:32:28 57° 72° (ENE) 23:36:53 437.505/2401.250
AIST 2D 22 Jul 23:28:13 23:29:08 11° 89° (E) 23:30:01 435.315
M-CUBED/EXP-1 PRIME 22 Jul 23:29:58 23:34:11 36° 103° (ESE) 23:38:29 437.505
FO-29 22 Jul 23:38:50 23:46:10 62° 292° (WNW) 23:52:41 435.910
TIGRISAT 22 Jul 23:42:50 23:47:11 67° 287° (WNW) 23:51:26 435.000
Tancredo 1 22 Jul 23:44:06 23:46:58 48° 344° (NNW) 23:49:51 437.200
BEESAT 2 22 Jul 23:45:01 23:48:56 46° 239° (WSW) 23:52:48 435.950
PRISM 22 Jul 23:49:40 23:53:48 61° 288° (WNW) 23:57:54 437.425
AO-85 22 Jul 23:53:42 23:56:21 16° 247° (WSW) 23:59:07 145.980
POLYITAN 1 22 Jul 23:58:20 00:00:12 13° 89° (E) 00:02:04 437.675
DUCHIFAT 1 23 Jul 00:01:12 00:02:05 11° 87° (E) 00:02:58 145.980
SPROUT 23 Jul 00:04:10 00:08:06 36° 68° (ENE) 00:12:04 437.525
QB50P2 23 Jul 00:10:16 00:13:16 19° 92° (E) 00:16:14 145.880/145.840
50 SAT 23 Jul 00:14:17 00:16:13 15° 63° (ENE) 00:18:11 437.505
ISS 23 Jul 00:15:45 00:18:57 59° 341° (NNW) 00:22:11 437.550
LO-87 23 Jul 00:16:53 00:19:53 24° 265° (W) 00:22:55 145.935 - 145.965
EO-79 23 Jul 00:23:06 00:26:29 23° 93° (E) 00:29:50 145.935-145.965
NANOSAT C BR1 23 Jul 00:25:08 00:28:25 22° 93° (E) 00:31:40 145.865
VELOX 1 23 Jul 00:26:37 00:30:55 54° 71° (ENE) 00:35:16 145.980
RS-15 23 Jul 00:29:36 00:41:42 58° 39° (NE) 00:53:11 29.354- 29.394
UNISAT 6 23 Jul 00:35:05 00:38:21 21° 297° (WNW) 00:41:34 437.425
DX 1 23 Jul 00:42:13 00:45:54 27° 65° (ENE) 00:49:37 434.975-435.025
AIST 2D 23 Jul 00:59:15 01:02:41 55° 286° (WNW) 01:06:05 435.315
nSIGHT-1 23 Jul 01:00:56 01:04:01 40° 351° (N) 01:07:06 .
M-CUBED/EXP-1 PRIME 23 Jul 01:04:31 01:08:29 31° 299° (WNW) 01:12:33 437.505
ESTCUBE 1 23 Jul 01:06:43 01:09:38 17° 270° (W) 01:12:35 437.505/2401.250
O/OREOS (USA 219) 23 Jul 01:18:19 01:22:28 35° 57° (ENE) 01:26:36 437.305
Tancredo 1 23 Jul 01:20:02 01:22:46 33° 4° (N) 01:25:31 437.200
FO-29 23 Jul 01:25:33 01:29:38 16° 314° (NW) 01:33:32 435.910
UKube-1 23 Jul 01:30:11 01:34:23 55° 71° (ENE) 01:38:38 .
POLYITAN 1 23 Jul 01:32:15 01:36:28 69° 286° (WNW) 01:40:37 437.675
DUCHIFAT 1 23 Jul 01:34:06 01:38:20 81° 285° (WNW) 01:42:30 145.980
SPROUT 23 Jul 01:40:33 01:44:05 25° 266° (W) 01:47:39 437.525
QB50P2 23 Jul 01:45:15 01:49:18 46° 290° (WNW) 01:53:19 145.880/145.840
50 SAT 23 Jul 01:45:24 01:48:38 41° 261° (W) 01:51:54 437.505
Oscar 19 23 Jul 01:46:07 01:49:54 20° 91° (E) 01:53:38 437.125/150
Gurwin Techsat 1B 23 Jul 01:50:04 01:52:57 15° 88° (E) 01:55:49 435.225
ISS 23 Jul 01:52:44 01:55:48 36° 1° (N) 01:58:52 437.550
EO-79 23 Jul 01:58:27 02:02:22 37° 291° (WNW) 02:06:14 145.935-145.965
BEESAT 23 Jul 01:59:43 02:02:38 16° 58° (ENE) 02:05:34 436.000
NANOSAT C BR1 23 Jul 02:00:21 02:04:17 39° 291° (WNW) 02:08:10 145.865
VELOX 1 23 Jul 02:04:45 02:07:42 17° 269° (W) 02:10:42 145.980
ITUPSAT 1 23 Jul 02:10:25 02:13:49 20° 60° (ENE) 02:17:14 437.325
BUGSAT 1 23 Jul 02:14:21 02:18:30 83° 104° (ESE) 02:22:34 437.445
DX 1 23 Jul 02:18:01 02:21:58 34° 263° (W) 02:26:00 434.975-435.025
nSIGHT-1 23 Jul 02:37:44 02:40:50 42° 11° (N) 02:43:56 .
RS-15 23 Jul 02:42:41 02:54:20 57° 246° (WSW) 03:05:24 29.354- 29.394
Tancredo 1 23 Jul 02:55:29 02:58:27 78° 23° (NNE) 03:01:25 437.200
O/OREOS (USA 219) 23 Jul 02:57:55 03:01:46 28° 255° (WSW) 03:05:36 437.305
UKube-1 23 Jul 03:07:59 03:10:45 17° 269° (W) 03:13:33 .
DUCHIFAT 1 23 Jul 03:12:44 03:13:15 10° 304° (WNW) 03:13:46 145.980
MOZHAYETS 4 23 Jul 03:23:17 03:27:47 61° 72° (ENE) 03:32:19
Oscar 19 23 Jul 03:24:31 03:29:36 60° 289° (WNW) 03:34:41 437.125/150
Gurwin Techsat 1B 23 Jul 03:28:14 03:33:36 85° 286° (WNW) 03:38:55 435.225
ISS 23 Jul 03:29:20 03:32:36 68° 21° (NNE) 03:35:51 437.550
ITAMSAT 1 23 Jul 03:32:10 03:35:05 15° 88° (E) 03:37:59 435.822/435.867
BEESAT 23 Jul 03:35:04 03:39:50 76° 256° (WSW) 03:44:39 436.000
ITUPSAT 1 23 Jul 03:46:29 03:51:13 61° 258° (WSW) 03:55:59 437.325
CUBESAT XI-V 23 Jul 03:51:17 03:55:03 26° 65° (ENE) 03:58:52 437.345
BUGSAT 1 23 Jul 03:51:40 03:53:13 12° 302° (WNW) 03:54:46 437.445
AO-7 23 Jul 03:54:50 04:02:06 31° 94° (E) 04:09:16 .
nSIGHT-1 23 Jul 04:14:09 04:17:21 60° 210° (SSW) 04:20:32 .
KKS-1 23 Jul 04:24:47 04:28:46 32° 67° (ENE) 04:32:47 437.445
Tancredo 1 23 Jul 04:31:27 04:33:34 18° 221° (SW) 04:35:42 437.200
YUBILEINY 23 Jul 04:56:16 05:02:48 22° 57° (ENE) 05:09:16 435.215
PCSat 23 Jul 04:56:54 04:59:06 12° 102° (ESE) 05:01:17 145.827
RS-15 23 Jul 04:59:27 05:03:42 13° 269° (W) 05:07:54 29.354- 29.394
STARS 23 Jul 05:02:14 05:06:14 34° 67° (ENE) 05:10:15 437.465
MOZHAYETS 4 23 Jul 05:02:27 05:05:21 16° 270° (W) 05:08:15
ISS 23 Jul 05:06:08 05:08:52 25° 219° (SW) 05:11:35 437.550
Oscar 19 23 Jul 05:06:54 05:07:55 11° 309° (NW) 05:08:56 437.125/150
Gurwin Techsat 1B 23 Jul 05:09:48 05:12:46 15° 305° (NW) 05:15:43 435.225
ITAMSAT 1 23 Jul 05:09:57 05:15:12 81° 287° (WNW) 05:20:23 435.822/435.867
DOVE 4 23 Jul 05:15:54 05:17:30 11° 84° (E) 05:19:06 437.250
CUBESAT XI-V 23 Jul 05:27:58 05:32:15 39° 263° (W) 05:36:35 437.345
AO-7 23 Jul 05:47:09 05:55:27 68° 295° (WNW) 06:03:42 .
nSIGHT-1 23 Jul 05:52:39 05:53:11 10° 227° (SW) 05:53:43 .
KKS-1 23 Jul 06:01:24 06:05:19 30° 264° (W) 06:09:17 437.445
XW-2D 23 Jul 06:27:12 06:29:35 16° 91° (E) 06:31:57 145.860 - 145.880
PCSat 23 Jul 06:36:09 06:41:34 78° 121° (ESE) 06:47:02 145.827
XW-2B 23 Jul 06:36:52 06:39:39 19° 93° (E) 06:42:25 145.730 - 145.750
STARS 23 Jul 06:38:46 06:42:36 28° 265° (W) 06:46:26 437.465
CUTE-I 23 Jul 06:38:54 06:43:04 22° 92° (E) 06:47:12 437.470
DOVE 4 23 Jul 06:50:43 06:56:04 77° 103° (ESE) 07:01:14 437.250
ITAMSAT 1 23 Jul 06:51:11 06:53:51 14° 306° (NW) 06:56:30 435.822/435.867
YUBILEINY 23 Jul 06:52:13 07:01:04 86° 81° (E) 07:09:48 435.215
XW-2C 23 Jul 06:53:38 06:56:59 30° 96° (E) 07:00:20 145.795 - 145.815
SO-50 23 Jul 06:57:42 07:01:10 22° 114° (ESE) 07:04:39 436.795
NUDT-PHONESAT 23 Jul 07:11:55 07:15:20 35° 97° (E) 07:18:44 437.300
STRAND 1 23 Jul 07:12:28 07:17:25 49° 69° (ENE) 07:22:23 437.568
LilacSat-2 23 Jul 07:13:42 07:17:25 54° 100° (E) 07:21:08 437.200
KAITUO 1B 23 Jul 07:22:16 07:25:53 49° 99° (E) 07:29:30 145.475/437.950
XW-2F 23 Jul 07:33:24 07:37:10 84° 104° (ESE) 07:40:55 145.980 - 146.000
AO-7 23 Jul 07:41:10 07:46:48 20° 317° (NW) 07:52:25 .
HO-68 23 Jul 07:43:36 07:49:44 30° 93° (E) 07:55:48 435.675
CUTE 1.7 + AOD 2 23 Jul 07:51:34 07:55:06 25° 94° (E) 07:58:38 437.475
XW-2D 23 Jul 08:00:25 08:04:00 43° 288° (WNW) 08:07:33 145.860 - 145.880
SEEDS 23 Jul 08:08:50 08:12:19 24° 94° (E) 08:15:46 437.485
UWE-3 23 Jul 08:09:17 08:10:52 12° 87° (E) 08:12:27 435.000/436.395/437.385
FO-29 23 Jul 08:09:24 08:15:15 24° 53° (NE) 08:21:10 435.910
XW-2B 23 Jul 08:10:30 08:13:57 35° 290° (WNW) 08:17:23 145.730 - 145.750
CUTE-I 23 Jul 08:18:13 08:23:29 57° 290° (WNW) 08:28:42 437.470
